(339801) = 2005 SP193

Discovered at Kitt Peak on 2005-09-29 by Spacewatch.

Orbit

Orbit type: Main Belt

Note: WebGL enabled browser required.

epoch2024-03-31.0
epoch JD2460400.5
perihelion date2023-05-18.58769
perihelion JD2460083.08769
argument of perihelion (°)133.80315
ascending node (°)266.39119
inclination (°)0.76906
eccentricity0.1615093
perihelion distance (AU)1.9332032
Tisserand w.r.t. Jupiter3.6
ΔV w.r.t. Earth (km/sec)8.6
semimajor axis (AU)2.3055751
mean anomaly (°)89.36320
mean daily motion (°/day)0.28153670
aphelion distance (AU)2.678
period (years)3.5
P-vector [x]0.76379492
P-vector [y]0.58827705
P-vector [z]0.26560766
Q-vector [x]-0.64531998
Q-vector [y]0.70451967
Q-vector [z]0.29532045
absolute magnitude17.89
phase slope0.15
uncertainty0
referenceMPEC 2024-C82
observations used272
oppositions13
arc length (days)10270
first opposition used1995
last opposition used2024
residual rms (arc-secs)0.81
perturbers coarse indicatorM-v
perturbers precise indicator003Ek
first observation date used1995-12-26.0
last observation date used2024-02-07.0
computer nameMPCLINUX
JD of orbit computation2456789.363073
perihelion JD uncertainty (days)8.5229E-05
argument of perihelion uncertainty (°)6.5353E-04
ascending node uncertainty (°)6.5320E-04
inclination uncertainty (°)5.6022E-06
eccentricity uncertainty 1.2535E-07
perihelion distance uncertainty (AU)2.9307E-07
Minimum Orbit Intersection Distances (in AU)
for orbit epoch: 2460200.5, reference: E2024-C82
Mercury1.60977
Venus1.21078
Earth0.94017
Mars0.44799
Jupiter2.71776
Saturn6.89799
Uranus15.8944
Neptune27.8844

Observations

280 total observations over interval: 1995 12 26.29684 – 2024 02 07.331503
These data are available for download (format description).

Date (UT) J2000 RA J2000 Dec Magn Location Ref
1995 12 26.29684 09 36 25.17 +13 31 55.0 21.1 V 691 – Steward Observatory, Kitt Peak-Spacewatch MPS 343725
1995 12 26.32475 09 36 24.83 +13 31 55.7   691 – Steward Observatory, Kitt Peak-Spacewatch MPS 343725
1995 12 26.34617 09 36 24.52 +13 31 56.4   691 – Steward Observatory, Kitt Peak-Spacewatch MPS 343725
2004 04 22.48664 16 20 56.03 -22 06 32.6 21.8 R 568 – Maunakea MPS 347966
2004 04 22.53950 16 20 54.00 -22 06 28.0   568 – Maunakea MPS 347966
2005 09 29.45071 02 26 30.91 +15 52 31.7 20.6 V 691 – Steward Observatory, Kitt Peak-Spacewatch MPS 144374
2005 09 29.46820 02 26 30.44 +15 52 30.2 20.4 V 691 – Steward Observatory, Kitt Peak-Spacewatch MPS 144374
2005 09 29.48563 02 26 30.03 +15 52 28.3 20.3 V 691 – Steward Observatory, Kitt Peak-Spacewatch MPS 144374
2005 10 02.48928 02 25 14.05 +15 46 44.9 19.9 V G96 – Mt. Lemmon Survey MPS 144374
2005 10 02.49324 02 25 13.94 +15 46 43.9 20.0 V G96 – Mt. Lemmon Survey MPS 144374
2005 10 02.49720 02 25 13.83 +15 46 43.6 19.5 V G96 – Mt. Lemmon Survey MPS 144374
2005 10 02.50116 02 25 13.69 +15 46 43.4 19.8 V G96 – Mt. Lemmon Survey MPS 144374
2005 10 13.37831 02 18 19.63 +15 12 45.7 19.9 V 691 – Steward Observatory, Kitt Peak-Spacewatch MPS 153727
2005 10 13.39566 02 18 18.75 +15 12 41.3 19.8 V 691 – Steward Observatory, Kitt Peak-Spacewatch MPS 153727
2005 10 13.41301 02 18 17.90 +15 12 37.3 20.0 V 691 – Steward Observatory, Kitt Peak-Spacewatch MPS 153727
2005 10 22.31369 02 10 41.77 +14 32 08.3 19.2 V 703 – Catalina Sky Survey MPS 153727
2005 10 22.32318 02 10 41.08 +14 32 04.9 18.8 V 703 – Catalina Sky Survey MPS 153727
2005 10 22.33265 02 10 40.62 +14 32 03.0 19.7 V 703 – Catalina Sky Survey MPS 153727
2005 10 22.34212 02 10 40.00 +14 31 59.9 19.5 V 703 – Catalina Sky Survey MPS 153727
2005 10 24.24739 02 08 55.23 +14 22 19.4 19.1 R 699 – Lowell Observatory-LONEOS MPS 153727
2005 10 24.26933 02 08 53.93 +14 22 11.8   699 – Lowell Observatory-LONEOS MPS 153727
2005 10 24.29129 02 08 52.59 +14 22 04.0   699 – Lowell Observatory-LONEOS MPS 153727
2005 10 24.31323 02 08 51.32 +14 21 56.9   699 – Lowell Observatory-LONEOS MPS 153727
2005 10 27.29588 02 06 05.00 +14 06 18.8 19.0 V G96 – Mt. Lemmon Survey MPS 153727
2005 10 27.30970 02 06 04.17 +14 06 14.4 19.1 V G96 – Mt. Lemmon Survey MPS 153727
2005 10 27.31639 02 06 03.78 +14 06 12.3 18.9 V G96 – Mt. Lemmon Survey MPS 153727
2005 10 30.24573 02 03 20.73 +13 50 31.9 19.0 V 703 – Catalina Sky Survey MPS 153727
2005 10 30.25032 02 03 20.52 +13 50 29.8 19.4 V 703 – Catalina Sky Survey MPS 153727
2005 10 30.25490 02 03 20.23 +13 50 28.3 19.5 V 703 – Catalina Sky Survey MPS 153727
2005 10 30.25948 02 03 19.98 +13 50 26.4 19.1 V 703 – Catalina Sky Survey MPS 153727
2005 11 05.25889 01 57 58.27 +13 18 28.6 19.6   704 – Lincoln Laboratory ETS, New Mexico MPS 153727
2005 11 05.27131 01 57 57.52 +13 18 24.1 19.8   704 – Lincoln Laboratory ETS, New Mexico MPS 153727
2005 11 05.28372 01 57 56.88 +13 18 21.7 19.3   704 – Lincoln Laboratory ETS, New Mexico MPS 153727
2005 11 05.29621 01 57 56.02 +13 18 17.0 19.2   704 – Lincoln Laboratory ETS, New Mexico MPS 153727
2005 11 05.30942 01 57 55.42 +13 18 13.0 19.6   704 – Lincoln Laboratory ETS, New Mexico MPS 153727
2010 01 17.25300 09 16 03.50 +14 57 04.2   691 – Steward Observatory, Kitt Peak-Spacewatch MPS 317920
2010 01 17.27067 09 16 02.50 +14 57 07.8   691 – Steward Observatory, Kitt Peak-Spacewatch MPS 317920
2010 01 17.28839 09 16 01.38 +14 57 13.3   691 – Steward Observatory, Kitt Peak-Spacewatch MPS 317920
2010 02 09.27774 08 51 49.46 +16 34 01.7 20.5 V G96 – Mt. Lemmon Survey MPS 317920
2010 02 09.28747 08 51 48.81 +16 34 03.9 20.4 V G96 – Mt. Lemmon Survey MPS 317920
2010 02 09.29725 08 51 48.16 +16 34 06.0 20.7 V G96 – Mt. Lemmon Survey MPS 317920
2010 02 09.30689 08 51 47.55 +16 34 08.7 20.8 V G96 – Mt. Lemmon Survey MPS 317920
2010 02 14.18024 08 46 57.50 +16 52 55.5 21.0 V G96 – Mt. Lemmon Survey MPS 317920
2010 02 14.18675 08 46 57.10 +16 52 57.3 20.5 V G96 – Mt. Lemmon Survey MPS 317920
2010 02 14.19323 08 46 56.74 +16 52 58.6 20.4 V G96 – Mt. Lemmon Survey MPS 317920
2010 02 14.19965 08 46 56.38 +16 53 00.1 20.7 V G96 – Mt. Lemmon Survey MPS 317920
2010 02 16.22002 08 45 03.85 +17 00 13.7 20.9 V G96 – Mt. Lemmon Survey MPS 317920
2010 02 16.22632 08 45 03.49 +17 00 15.2 20.5 V G96 – Mt. Lemmon Survey MPS 317920
2010 02 16.23266 08 45 03.13 +17 00 16.4 20.9 V G96 – Mt. Lemmon Survey MPS 317920
2010 02 16.23899 08 45 02.73 +17 00 17.1 20.4 V G96 – Mt. Lemmon Survey MPS 317920
2010 04 26.488990 08 52 02.40 +16 44 34.5   C51 – WISE MPS 341816
2010 04 26.753598 08 52 17.70 +16 43 38.1   C51 – WISE MPS 341816
2010 04 27.216600 08 52 44.59 +16 41 54.8   C51 – WISE MPS 341816
2010 04 27.282815 08 52 48.348 +16 41 40.02   C51 – WISE MPS 904109
2010 04 27.481207 08 53 00.000 +16 40 57.76   C51 – WISE MPS 904109
2010 04 27.48134 08 53 00.03 +16 40 56.0   C51 – WISE MPS 341816
2010 04 27.613512 08 53 07.639 +16 40 25.97   C51 – WISE MPS 904109
2010 04 27.613639 08 53 07.490 +16 40 24.49   C51 – WISE MPS 904109
2012 10 08.25460 02 15 13.37 +14 58 16.1 19.9 V 691 – Steward Observatory, Kitt Peak-Spacewatch MPS 434122
2012 10 08.27226 02 15 12.59 +14 58 12.4 20.0 V 691 – Steward Observatory, Kitt Peak-Spacewatch MPS 434122
2012 10 08.28992 02 15 11.81 +14 58 08.9 20.1 V 691 – Steward Observatory, Kitt Peak-Spacewatch MPS 434122
2012 10 11.355432 02 12 57.961 +14 46 41.50 19.8 w F51 – Pan-STARRS 1, Haleakala MPS 435071
2012 10 11.370416 02 12 57.230 +14 46 38.07 19.6 w F51 – Pan-STARRS 1, Haleakala MPS 435071
2012 10 11.385394 02 12 56.496 +14 46 34.60 19.8 w F51 – Pan-STARRS 1, Haleakala MPS 435071
2012 10 11.400458 02 12 55.753 +14 46 31.10 19.6 w F51 – Pan-STARRS 1, Haleakala MPS 435071
2012 10 15.43361 02 09 39.49 +14 29 15.1 19.6 R 926 – Tenagra II Observatory, Nogales MPS 435071
2012 10 15.44773 02 09 38.69 +14 29 10.7 19.8 R 926 – Tenagra II Observatory, Nogales MPS 435071
2012 10 15.45959 02 09 38.09 +14 29 07.5 19.9 R 926 – Tenagra II Observatory, Nogales MPS 435071
2012 10 16.18322 02 09 01.86 +14 25 48.3 20.1 V 691 – Steward Observatory, Kitt Peak-Spacewatch MPS 435071
2012 10 16.20090 02 09 00.89 +14 25 43.3 20.0 V 691 – Steward Observatory, Kitt Peak-Spacewatch MPS 435071
2012 10 16.21857 02 08 59.95 +14 25 38.2 19.7 V 691 – Steward Observatory, Kitt Peak-Spacewatch MPS 435071
2012 10 16.31973 02 08 54.47 +14 25 11.5 20.2   704 – Lincoln Laboratory ETS, New Mexico MPS 435071
2012 10 16.33324 02 08 53.62 +14 25 08.4 19.7   704 – Lincoln Laboratory ETS, New Mexico MPS 435071
2012 10 16.34676 02 08 52.89 +14 25 04.1 19.9   704 – Lincoln Laboratory ETS, New Mexico MPS 435071
2012 11 02.21811 01 53 35.48 +12 56 59.8 19.4 V G96 – Mt. Lemmon Survey MPS 441612
2012 11 02.22571 01 53 35.05 +12 56 57.3 19.4 V G96 – Mt. Lemmon Survey MPS 441612
2012 11 02.23301 01 53 34.65 +12 56 55.0 19.5 V G96 – Mt. Lemmon Survey MPS 441612
2012 11 02.24012 01 53 34.26 +12 56 52.8 19.4 V G96 – Mt. Lemmon Survey MPS 441612
2012 11 07.18823 01 49 27.80 +12 31 10.4 19.4 V G96 – Mt. Lemmon Survey MPS 441612
2012 11 07.19363 01 49 27.55 +12 31 08.9 19.5 V G96 – Mt. Lemmon Survey MPS 441612
2012 11 07.19910 01 49 27.26 +12 31 07.3 19.4 V G96 – Mt. Lemmon Survey MPS 441612
2012 11 07.20454 01 49 27.01 +12 31 05.3 19.4 V G96 – Mt. Lemmon Survey MPS 441612
2012 11 07.289418 01 49 23.121 +12 30 41.73 19.7 w F51 – Pan-STARRS 1, Haleakala MPS 441612
2012 11 07.303486 01 49 22.414 +12 30 37.59 19.8 w F51 – Pan-STARRS 1, Haleakala MPS 441612
2012 11 07.317596 01 49 21.704 +12 30 33.41 19.6 w F51 – Pan-STARRS 1, Haleakala MPS 441612
2012 11 12.21623 01 45 48.44 +12 07 17.6 19.7   704 – Lincoln Laboratory ETS, New Mexico MPS 443322
2012 11 12.23107 01 45 47.79 +12 07 15.0 20.3   704 – Lincoln Laboratory ETS, New Mexico MPS 443322
2012 11 12.24597 01 45 47.22 +12 07 11.1 20.0   704 – Lincoln Laboratory ETS, New Mexico MPS 443322
2012 11 12.27652 01 45 45.97 +12 07 02.5 20.3   704 – Lincoln Laboratory ETS, New Mexico MPS 443322
2012 11 13.32727 01 45 04.86 +12 02 25.6 19.8 V 703 – Catalina Sky Survey MPS 443322
2012 11 13.33429 01 45 04.53 +12 02 23.5 19.8 V 703 – Catalina Sky Survey MPS 443322
